Location: *
(43.4667°N, 11.6833°E)
Time: 08:56:32
(UTC+00:00)

Mayak - Pass Details

Date: 19 July 2019
Orbit: 582 x 602 km, 97.6° (Epoch: 26 August)

Event Time Altitude Azimuth Distance (km) Brightness Sun altitude
Rises 22:29:55 0° 5° (N) 2,863 3.5 -24.8°
Reaches altitude 10° 22:32:11 10° 358° (N) 1,955 2.4 -24.9°
Maximum altitude 22:36:10 41° 289° (WNW) 882 -0.2 -25.0°
Enters shadow 22:36:38 39° 271° (W) 906 -0.3 -25.0°
